#timestamp,LO_Frequency,Hit,StdDev 
1593961215.1,286047000.9,N
1593961235.8,286047001.0,N
1593961255.7,286047000.0,N
1593961275.5,286047001.2,N
1593961295.4,286046998.6,N
1593961315.2,286046998.3,N
1593961335.0,286046996.6,N
1593961335.9,286046996.6,N
1593961355.8,286046999.6,N
1593961375.6,286046995.6,N
1593961395.4,286046994.5,N
1593961415.3,286046994.5,N
1593961435.1,286046996.0,N
1593961455.9,286046993.6,N
1593961475.7,286046994.5,N
1593961495.5,286046991.9,N
1593961515.4,286046992.9,N
1593961535.2,286046994.3,N
1593961555.0,286046991.7,N
1593961556.0,286046991.7,N
1593961575.8,286046992.4,N
1593961595.6,286046992.2,N
1593961615.5,286046994.4,N
1593961635.3,286046996.0,N
1593961655.1,286046996.2,N
1593961675.9,286046997.9,N
1593961695.7,286046995.3,N
1593961715.6,286046996.3,N
1593961735.4,286046996.0,N
1593961755.2,286046994.3,N
1593961775.1,286046995.8,N
1593961776.0,286046995.8,N
1593961795.8,286046995.9,N
1593961815.7,286046996.0,N
1593961835.5,286046995.1,N
1593961855.3,286046995.3,N
1593961875.2,286046997.6,N
1593961895.9,286046996.7,N
1593961915.7,286046997.0,N
1593961935.6,286046996.8,N
1593961955.4,286046997.1,N
1593961975.3,286046995.1,N
1593961995.1,286046995.5,N
1593961996.0,286046995.5,N
1593962015.8,286046996.2,N
1593962035.7,286046991.8,Y
1593962055.5,286047001.0,P
1593962075.4,286047000.5,N
1593962095.2,286047002.3,N
1593962115.0,286047000.8,N
1593962115.9,286047000.8,N
1593962135.8,286047001.1,N
1593962155.6,286047000.7,N
1593962175.4,286047000.9,N
1593962195.3,286046998.6,N
1593962215.1,286047001.1,N
1593962235.9,286046999.4,N
1593962255.7,286047001.1,N
1593962275.5,286046998.7,N
1593962295.4,286046998.8,N
1593962315.2,286046998.9,N
1593962335.1,286046998.6,N
1593962336.0,286046998.6,N
1593962355.8,286046998.3,N
1593962375.6,286046998.8,N
1593962395.5,286046998.7,N
1593962415.3,286046998.1,N
1593962435.1,286046998.5,N
1593962455.9,286047000.3,N
1593962475.7,286047000.1,N
1593962495.6,286047000.5,N
1593962515.4,286047001.0,N
1593962535.2,286047000.0,N
1593962555.1,286047000.5,N
1593962556.0,286047000.5,N
1593962575.8,286047001.0,N
1593962595.7,286047000.9,N
1593962615.5,286046998.9,N
1593962635.3,286046998.8,N
1593962655.2,286046998.8,N
1593962675.0,286047001.2,N
1593962675.9,286047001.2,N
1593962695.8,286046998.2,N
1593962715.6,286046998.7,N
1593962735.4,286046998.3,N
1593962755.3,286046999.4,N
1593962775.1,286046998.5,N
1593962795.8,286047000.6,N
1593962815.7,286046998.8,N
1593962835.5,286046997.1,N
1593962855.4,286046996.6,Y
1593962875.2,286046998.1,P
1593962895.0,286047000.5,N
1593962895.9,286047000.5,N
1593962915.8,286047000.2,N
1593962935.6,286047000.0,N
1593962955.5,286046998.1,N
1593962975.3,286047000.0,N
1593962995.1,286047000.9,N
1593963015.9,286047000.4,N
1593963035.7,286047001.2,N
1593963055.5,286046998.1,N
1593963075.4,286046999.3,N
1593963095.2,286046999.0,N
1593963115.1,286047001.1,N
1593963116.0,286047001.1,N
1593963135.8,286046999.1,N
1593963155.6,286046999.1,N
1593963175.5,286047000.5,N
1593963195.3,286046998.7,N
1593963215.2,286046998.1,N
1593963235.9,286046998.8,N
1593963255.7,286046998.3,N
1593963275.6,286047000.5,N
1593963295.4,286047001.0,N
1593963315.2,286047000.6,N
1593963335.1,286047001.0,N
1593963336.0,286047001.0,N
1593963355.8,286046999.2,N
1593963375.7,286047001.0,N
1593963395.5,286046998.2,N
1593963415.3,286046998.5,N
1593963435.2,286047000.5,N
1593963455.0,286047001.5,N
1593963455.9,286047001.5,N
1593963475.8,286047002.8,N
1593963495.6,286047002.0,N
1593963515.4,286047001.8,N
1593963535.3,286047004.2,Y
1593963555.1,286047004.2,P
1593963575.8,286047001.5,N
1593963595.7,286047002.1,N
1593963615.5,286047002.0,N
1593963635.4,286047003.9,N
1593963655.2,286047002.2,N
1593963675.0,286047001.6,N
1593963675.9,286047001.6,N
1593963695.8,286047001.4,N
1593963715.6,286047002.7,N
1593963735.5,286047000.5,N
1593963755.3,286047002.4,N
1593963775.1,286047001.5,N
1593963795.9,286047001.8,N
1593963815.7,286047004.4,Y
1593963835.5,286046998.5,P
1593963855.4,286046999.9,N
1593963875.2,286046998.9,N
1593963895.1,286046999.1,N
1593963896.0,286046999.1,N
1593963915.8,286046997.7,N
1593963935.6,286046997.5,N
1593963955.5,286046997.6,N
1593963975.3,286046996.7,N
1593963995.2,286046996.9,N
1593964015.9,286046998.4,N
1593964035.7,286046996.8,N
1593964055.6,286046994.9,Y
1593964075.4,286047000.8,P
1593964095.2,286046999.9,N
1593964115.1,286046998.2,N
1593964116.0,286046998.2,N
1593964135.8,286047000.5,N
1593964155.7,286047000.0,N
1593964175.5,286046999.7,N
1593964195.3,286047002.2,N
1593964215.2,286047002.2,N
1593964235.0,286047004.4,Y
1593964235.9,286047004.4,P
1593964255.8,286047001.8,N
1593964275.6,286047005.9,P
1593964295.4,286047005.3,N
1593964315.3,286047007.6,Y
1593964335.1,286047002.2,P
1593964355.9,286047003.8,P
1593964375.7,286047006.0,P
1593964395.5,286047003.0,N
1593964415.4,286047003.3,N
1593964435.2,286047003.8,Y
1593964455.1,286046998.3,P
1593964456.0,286046998.3,N
1593964475.8,286047001.1,N
1593964495.6,286046998.4,N
1593964515.5,286046998.7,N
1593964535.3,286046998.1,N
1593964555.1,286047000.7,N
1593964575.9,286047000.7,N
1593964595.7,286046998.7,N
1593964615.6,286046999.6,N
1593964635.4,286046999.1,N
1593964655.2,286046998.8,N
1593964675.1,286046999.6,N
1593964676.0,286046999.6,N
1593964695.8,286046998.9,N
1593964715.7,286046997.5,N
1593964735.5,286046996.5,N
1593964755.3,286046998.3,N
1593964775.2,286046999.2,N
1593964795.9,286046999.2,N
